TimeEST,TemperatureF,Dew PointF,Humidity,Sea Level PressureIn,VisibilityMPH,Wind Direction,Wind SpeedMPH,Gust SpeedMPH,PrecipitationIn,Events,Conditions,WindDirDegrees,DateUTC
12:53 AM,69.1,64.9,87,30.12,10.0,East,3.5,-,N/A,,Mostly Cloudy,80,2013-11-23 05:53:00
1:53 AM,69.1,64.0,84,30.11,10.0,ENE,3.5,-,N/A,,Mostly Cloudy,70,2013-11-23 06:53:00
2:53 AM,68.0,64.0,87,30.10,10.0,NE,5.8,-,N/A,,Partly Cloudy,50,2013-11-23 07:53:00
3:53 AM,66.0,63.0,90,30.09,10.0,Calm,Calm,-,N/A,,Partly Cloudy,0,2013-11-23 08:53:00
4:53 AM,64.9,63.0,93,30.09,10.0,North,4.6,-,N/A,,Partly Cloudy,350,2013-11-23 09:53:00
5:53 AM,64.9,64.0,97,30.11,10.0,North,5.8,-,N/A,,Scattered Clouds,350,2013-11-23 10:53:00
6:53 AM,66.0,64.9,96,30.12,10.0,North,5.8,-,N/A,,Scattered Clouds,10,2013-11-23 11:53:00
7:53 AM,69.1,66.0,90,30.13,10.0,North,3.5,-,N/A,,Partly Cloudy,10,2013-11-23 12:53:00
8:53 AM,75.0,66.9,76,30.13,10.0,NE,5.8,-,N/A,,Clear,50,2013-11-23 13:53:00
9:53 AM,78.1,66.0,66,30.12,10.0,ESE,12.7,-,N/A,,Partly Cloudy,120,2013-11-23 14:53:00
10:53 AM,79.0,64.9,62,30.11,10.0,ESE,8.1,-,N/A,,Partly Cloudy,110,2013-11-23 15:53:00
11:53 AM,81.0,64.0,56,30.08,10.0,Calm,Calm,-,N/A,,Scattered Clouds,0,2013-11-23 16:53:00
12:53 PM,82.0,63.0,52,30.05,10.0,ENE,4.6,-,N/A,,Partly Cloudy,70,2013-11-23 17:53:00
1:53 PM,82.9,62.1,49,30.02,10.0,Variable,3.5,-,N/A,,Scattered Clouds,0,2013-11-23 18:53:00
2:53 PM,84.0,62.1,47,30.01,10.0,SSE,4.6,-,N/A,,Scattered Clouds,160,2013-11-23 19:53:00
3:53 PM,82.0,62.1,51,30.01,10.0,Calm,Calm,-,N/A,,Scattered Clouds,0,2013-11-23 20:53:00
4:53 PM,81.0,62.1,52,30.02,10.0,NNE,3.5,-,N/A,,Mostly Cloudy,20,2013-11-23 21:53:00
5:53 PM,79.0,61.0,54,30.03,10.0,Calm,Calm,-,N/A,,Mostly Cloudy,0,2013-11-23 22:53:00
6:53 PM,77.0,64.0,64,30.04,10.0,ENE,6.9,-,N/A,,Mostly Cloudy,60,2013-11-23 23:53:00
7:53 PM,73.0,64.9,76,30.06,10.0,East,4.6,-,N/A,,Partly Cloudy,80,2013-11-24 00:53:00
8:53 PM,71.1,64.9,81,30.05,10.0,East,3.5,-,N/A,,Partly Cloudy,100,2013-11-24 01:53:00
9:53 PM,71.1,64.9,81,30.06,10.0,Calm,Calm,-,N/A,,Partly Cloudy,0,2013-11-24 02:53:00
10:53 PM,70.0,66.0,87,30.07,10.0,WNW,3.5,-,N/A,,Mostly Cloudy,300,2013-11-24 03:53:00
11:53 PM,68.0,64.0,87,30.06,10.0,SSW,3.5,-,N/A,,Partly Cloudy,200,2013-11-24 04:53:00